Location: *
(44.6833°S, 172.6333°W)
Time: 17:16:32
(UTC+00:00)

Daily predictions for brighter satellites

Satellite Brightness Start Highest point End
(mag) Time Altitude Azimuth Time Altitude Azimuth Time Altitude Azimuth
ATLAS 3B R/B 3.9 12:00:29 10° WSW 12:04:57 21° WNW 12:05:15 20° WNW
Cosmos 2333 Rocket 2.4 12:00:22 10° SSW 12:06:05 68° ESE 12:09:10 28° NE
Timation 1 Rocket 4.3 12:09:46 44° NNW 12:11:48 79° ENE 12:17:50 10° SSE
Cosmos 332 Rocket 3.7 12:13:51 55° N 12:14:55 84° ENE 12:19:49 10° SSE
SAR-Lupe-4 3.5 12:15:03 83° ENE 12:15:07 84° ESE 12:18:48 10° SSW
Cosmos 1975 Rocket 3.2 12:11:11 10° SSW 12:15:34 57° W 12:16:04 53° NW
ALOS 2 2.8 12:13:09 10° S 12:17:35 62° WSW 12:18:28 50° WNW
Cosmos 2084 3.6 12:18:23 55° NW 12:19:23 85° SW 12:24:11 10° SE
Cosmos 1825 2.5 12:17:14 10° SSW 12:20:28 49° WSW 12:20:28 49° WSW
CZ-2D R/B 2.2 12:22:49 37° NNE 12:25:07 87° ESE 12:30:43 10° SSW
Cosmos 1025 Rocket 4.3 12:24:00 10° SSW 12:27:43 27° W 12:28:02 26° W
Cosmos 1242 Rocket 4.2 12:26:19 10° SSE 12:29:06 24° ESE 12:30:09 20° ENE
Meteor 1-11 4.2 12:23:20 10° S 12:29:11 87° E 12:31:40 36° NNE
Cosmos 1315 Rocket 4.4 12:27:51 10° SW 12:30:57 22° W 12:30:57 22° W
Cosmos 2333 4.1 12:26:49 10° SSW 12:32:32 90° ESE 12:35:29 30° NNE
Okean 1 Rocket 4.2 12:31:24 27° NE 12:33:00 37° E 12:37:07 10° SSE
MSX 3.8 12:30:50 34° NNE 12:33:30 88° WNW 12:39:21 10° SSW
Cosmos 1536 Rocket 3.9 12:30:28 10° S 12:34:59 62° E 12:36:39 36° NE
Sich 1 Rocket 3.7 12:33:44 46° NNE 12:35:01 72° E 12:39:41 10° SSE
SAR-Lupe-1 4.3 12:36:20 54° W 12:36:20 54° W 12:39:53 10° SSW
IDEFIX/ARIANE 42P 2.6 12:35:56 41° N 12:37:47 72° WNW 12:43:08 10° SSW
SL-27 R/B 2.3 12:38:32 67° ESE 12:38:32 67° ESE 12:41:23 10° SSE
Helios 1A Rocket 2.8 12:34:29 10° SSE 12:38:27 76° ENE 12:39:07 59° N
Okean 2 Rocket 3.1 12:39:07 48° N 12:40:18 76° E 12:44:47 10° SSE
ADEOS II 2.1 12:39:03 30° NNE 12:41:43 79° ESE 12:47:03 10° SSW
Meteor 1-4 Rocket 3.4 12:43:01 10° SSW 12:45:27 32° WSW 12:45:27 32° WSW
COSMOS 2441 4.4 12:46:07 33° NNE 12:48:21 82° ESE 12:53:16 10° SSW
Cosmos 2219 Rocket 2.1 12:44:12 10° SSW 12:49:53 89° ESE 12:53:31 23° NNE
Cosmos 2360 Rocket 2.6 12:44:31 10° SW 12:49:57 46° WNW 12:51:36 36° NNW
Cosmos 921 Rocket 3.0 12:48:19 10° SSW 12:52:34 76° ESE 12:54:19 34° NNE
Cosmos 2123 Rocket 4.2 12:49:44 28° NNE 12:53:09 67° E 12:59:23 10° SSE
Cosmos 1727 Rocket 4.3 12:51:05 32° NW 12:53:54 57° WSW 13:00:10 10° S
Cosmos 1346 Rocket 3.7 12:53:28 29° NE 12:54:46 39° E 12:58:29 10° SSE
SL-8 R/B 4.4 12:50:46 10° W 12:55:34 56° S 13:00:22 10° ESE
In-Cosmos 22 Rocket 4.5 12:50:12 10° SSW 12:55:52 54° W 12:58:04 34° NNW
Cosmos 2173 Rocket 3.9 12:51:08 10° S 12:57:20 78° W 13:00:35 30° N
ALOS 3.2 12:57:48 14° NE 13:01:34 47° ESE 13:06:05 10° S
Cosmos 372 Rocket 4.1 12:59:42 35° NW 13:01:45 65° WSW 13:06:54 10° SSE
AQUA 3.7 13:00:17 34° N 13:02:21 79° WNW 13:07:12 10° SSW
Cosmos 1455 3.8 13:02:52 20° W 13:03:22 21° WSW 13:06:12 10° SSW
Cosmos 1441 Rocket 3.3 13:04:48 48° NW 13:05:38 64° WSW 13:09:28 10° S
Meteor 2-13 Rocket 4.4 13:07:10 29° N 13:10:30 89° W 13:16:40 10° S
Cosmos 1455 Rocket 4.2 13:09:11 19° NNE 13:11:45 37° E 13:15:49 10° SSE
Cosmos 1937 Rocket 3.8 13:10:03 30° NW 13:12:21 55° WSW 13:17:30 10° SSE
ATLAS 5 CENTAUR R/B 2.5 13:06:40 10° SSW 13:12:33 61° SE 13:17:13 10° NE
USA 276 4.3 13:13:17 15° NE 13:13:17 15° NE 13:14:43 10° E
Cosmos 2322 Rocket 3.5 13:09:08 10° SW 13:13:22 22° W 13:14:09 21° WNW
Cosmos 292 Rocket 3.7 13:11:41 35° NNW 13:13:46 88° ENE 13:18:40 10° SSE
GENESIS II 3.9 13:11:47 10° SW 13:15:26 77° WNW 13:17:03 31° NNE
ISS -1.6 13:13:57 10° SW 13:17:00 29° SSE 13:20:03 10° ESE
H-2A R/B 4.4 12:44:52 10° W 13:17:07 29° NW 13:22:15 17° N
Cosmos 1898 Rocket 4.5 13:15:10 23° WNW 13:17:51 38° WSW 13:22:51 10° S
Resurs 1-4 Rocket 3.0 13:17:55 26° NW 13:19:25 31° W 13:24:07 10° SW
USA 308 3.1 13:17:43 10° SW 13:20:02 38° SSE 13:22:45 10° ENE
CSL-04 DEB 4.4 13:18:43 29° N 13:20:53 80° WNW 13:25:12 10° SSW
Cosmos 2151 Rocket 4.4 13:19:37 29° WNW 13:21:16 40° WSW 13:25:37 10° S
BREEZE M DEB (TANK) 3.6 13:21:09 10° SW 13:23:12 36° SSE 13:26:26 10° E
FENGYUN 3A 3.6 13:20:28 24° N 13:23:46 70° WNW 13:29:13 10° SSW
CZ-4 R/B 3.8 13:20:35 20° NNE 13:23:53 83° ESE 13:28:38 10° SSW
Cosmos 2100 Rocket 4.4 13:18:53 10° SSW 13:24:48 46° W 13:28:00 26° NNW
USA 215 3.2 13:21:15 10° NE 13:27:47 66° NW 13:34:24 10° SW
IRIDIUM 106 4.5 13:22:29 10° S 13:27:49 75° E 13:31:49 18° N
Thor Agena Rocket 3.7 13:25:38 12° NNE 13:30:25 76° ESE 13:35:43 10° SSW
CZ-2C R/B 3.6 13:29:14 10° NE 13:34:03 44° ESE 13:38:46 10° S
Cosmos 2297 Rocket 3.0 13:30:36 17° N 13:34:34 43° ENE 13:39:56 10° SE
Cosmos 1725 Rocket 4.1 13:31:15 10° SSW 13:37:34 64° W 13:42:07 19° N
Cosmos 1802 Rocket 4.3 13:32:55 10° SSW 13:39:03 51° W 13:42:58 22° NNW
Cosmos 1680 Rocket 4.3 13:35:01 10° SW 13:39:49 34° W 13:42:05 24° NW
NOSS 0 Rocket 4.0 13:40:33 10° SSW 13:46:50 87° ESE 13:53:05 10° NNE
COSMOS 2428 2.8 13:43:37 10° SSW 13:49:16 60° WNW 13:54:50 10° N
Cosmos 2333 Rocket 3.6 13:45:51 10° WSW 13:49:45 19° W 13:51:07 18° WNW
Cosmos 1461 2.8 13:47:14 10° SW 13:51:30 75° WNW 13:55:53 10° NNE
SL-24 R/B - RUBIN 2 4.0 13:50:42 22° NNW 13:54:22 87° NE 13:59:21 10° SE
BREEZE-M DEB (TANK) 3.4 13:56:54 19° N 13:56:54 19° N 13:58:32 10° NNE
Cosmos 2058 4.0 13:53:25 10° S 13:57:25 44° ESE 14:01:22 10° NNE
IRS-1D 3.7 13:52:36 10° NNE 13:57:57 84° ESE 14:03:24 10° SSW
Cosmos 1048 Rocket 4.0 13:53:22 10° SSW 13:58:49 89° WNW 14:04:07 10° NNE
Cosmos 1242 Rocket 4.1 14:00:08 10° SW 14:02:22 17° W 14:02:45 17° W
Cosmos 2237 Rocket 2.5 13:57:30 10° SSW 14:03:17 73° ESE 14:09:00 10° NNE
Cosmos 397 4.5 14:02:25 21° NW 14:05:24 85° WSW 14:09:27 10° SSE
CZ-2D R/B 4.0 14:04:07 12° WNW 14:05:50 14° W 14:08:31 10° WSW
METEOR-M 4.1 14:03:03 10° N 14:08:26 77° WNW 14:13:53 10° SSW
Cosmos 2061 Rocket 4.4 14:03:20 10° SSW 14:09:17 46° W 14:14:24 14° NNW
FAST Rocket 4.4 14:06:36 10° SSW 14:09:36 44° W 14:10:55 23° NNW
Cosmos 2228 4.3 14:10:08 10° NNE 14:14:05 39° E 14:18:06 10° SSE
Cosmos 1892 Rocket 4.1 14:10:52 10° SSW 14:15:06 42° W 14:18:29 15° NNW
USA 32 4.4 14:14:04 16° NNW 14:18:11 52° W 14:23:23 10° S
CZ-2C R/B 4.0 14:15:03 14° NNW 14:19:26 37° W 14:24:51 10° SSW
H-2A R/B 4.5 14:16:04 10° ENE 14:20:27 26° ESE 14:24:57 10° S
ADEOS II 3.9 14:19:56 12° WNW 14:21:58 14° W 14:24:47 10° WSW
PAYLOAD A 3.8 14:17:31 10° N 14:22:14 75° WNW 14:27:03 10° SSW
USA 281 3.6 14:17:18 10° NE 14:23:51 72° ESE 14:30:28 10° SSW
USA 307 4.3 14:24:22 10° SSW 14:26:05 19° SSE 14:27:47 10° ESE
Cosmos 1125 Rocket 3.5 14:24:44 13° NNW 14:29:30 79° WSW 14:34:49 10° SSE
Cosmos 2084 Rocket 3.7 14:25:10 10° SW 14:29:58 84° NW 14:34:43 10° NE
Meteor 2-1 Rocket 4.5 14:24:27 10° N 14:30:19 80° E 14:36:21 10° SSE
Cosmos 2227 Rocket 2.5 14:25:33 10° NNW 14:31:11 68° ENE 14:36:53 10° SSE
Cosmos 2219 Rocket 3.9 14:30:21 10° WSW 14:32:57 13° W 14:35:09 11° WNW
Geosat 4.4 14:29:02 10° NE 14:34:02 70° ESE 14:39:06 10° SSW
YAOGAN 6 2.4 14:31:14 10° N 14:34:35 68° W 14:38:02 10° SSW
ARIANE 5 R/B 4.3 14:30:24 10° NE 14:35:05 35° ESE 14:39:45 10° S
BREEZE-M DEB (TANK) 2.0 14:34:36 10° WSW 14:37:03 47° NNW 14:39:34 10° NE
CZ-2C R/B 3.8 14:32:25 10° SSE 14:37:49 45° E 14:43:11 10° N
SL-8 R/B 4.2 14:33:36 10° WSW 14:38:27 67° SSE 14:43:17 10° E
CBERS-1 4.1 14:33:19 10° NNE 14:38:28 87° ESE 14:43:40 10° SSW
Cosmos 1869 4.0 14:34:36 10° N 14:38:30 54° E 14:42:28 10° SSE
ALOS 3.7 14:36:10 12° NW 14:39:03 20° W 14:42:32 10° SW
Envisat 3.2 14:34:40 10° N 14:39:38 51° W 14:44:40 10° SSW
Meteor 2-3 Rocket 4.3 14:36:18 10° S 14:42:04 63° ESE 14:47:41 10° NNE
USA 306 3.1 14:41:43 10° SW 14:45:20 62° SSE 14:49:10 10° ENE
USA 276 2.0 14:44:05 11° WNW 14:47:05 84° SSW 14:50:11 10° ESE
Lacrosse 5 4.3 14:46:18 10° NNE 14:48:56 14° ENE 14:51:35 10° E
Cosmos 1174 4.4 14:45:12 10° NW 14:50:37 71° WSW 14:54:57 10° SSE
Meteor 1-28 Rocket 3.3 14:48:09 10° SSE 14:51:50 77° E 14:55:28 10° N
NOAA 11 4.4 14:46:47 10° N 14:52:11 53° W 14:57:39 10° SSW
USA 308 3.2 14:51:37 10° W 14:53:49 21° NW 14:56:15 10° N
ISS -3.7 14:50:36 10° WSW 14:54:03 87° NNW 14:57:27 10° ENE
ATLAS 5 CENTAUR R/B 3.1 14:52:07 10° WSW 14:56:01 21° WNW 14:59:23 10° NNW
SL-16 R/B 2.9 14:52:27 10° SSE 14:58:41 70° ENE 15:04:52 10° N
BREEZE-M DEB (TANK) 3.7 14:54:16 10° NW 15:00:19 45° NNE 15:03:19 10° E
Cosmos 1484 Rocket 2.6 14:56:40 10° NNE 15:00:20 86° W 15:04:03 10° SSW
Cosmos 2285 Rocket 4.1 14:55:03 10° SSW 15:01:18 61° WNW 15:07:29 10° N
SL-16 R/B 2.7 14:56:52 10° SSW 15:02:37 68° ESE 15:08:18 10° NE
Cosmos 1758 Rocket 3.7 14:58:23 10° SSW 15:02:52 63° W 15:07:15 10° N
Okean 1-7 Rocket 3.8 14:59:57 10° SSW 15:04:25 53° W 15:08:47 10° N
Cosmos 1464 Rocket 4.1 15:01:07 10° SSW 15:07:13 60° W 15:13:14 10° N
